This is the latest recevied weather packets stored in our database for station/object SP6KBU-12. If no packets are shown the sender has not sent any weather packets the latest 10 day(s).
| Time | Temp. | Humidity | Pressure | Rain* | Wind** | Luminosity | Snow |
|---|---|---|---|---|---|---|---|
| 1787636383 | 11.11° C | 72% | 1020.8 hPa | - | - | - | - |
| 1787636335 | 11.11° C | 72% | 1020.8 hPa | - | - | - | - |
| 1787635434 | 11.11° C | 73% | 1020.8 hPa | - | - | - | - |
| 1787634534 | 11.11° C | 74% | 1020.7 hPa | - | - | - | - |
| 1787633634 | 10.56° C | 73% | 1020.8 hPa | - | - | - | - |
| 1787632734 | 10.56° C | 73% | 1020.8 hPa | - | - | - | - |
| 1787631834 | 10.56° C | 71% | 1020.8 hPa | - | - | - | - |
| 1787630933 | 10.56° C | 70% | 1020.8 hPa | - | - | - | - |
| 1787630033 | 10.56° C | 71% | 1021 hPa | - | - | - | - |
| 1787629133 | 10.56° C | 71% | 1020.8 hPa | - | - | - | - |
| 1787628233 | 10.56° C | 70% | 1021 hPa | - | - | - | - |
| 1787627333 | 10.56° C | 70% | 1020.6 hPa | - | - | - | - |
| 1787626433 | 10.56° C | 71% | 1020.8 hPa | - | - | - | - |
| 1787625532 | 10.56° C | 71% | 1020.9 hPa | - | - | - | - |
| 1787624632 | 10.56° C | 71% | 1021 hPa | - | - | - | - |
| 1787623732 | 10.56° C | 68% | 1021.1 hPa | - | - | - | - |
| 1787622832 | 10.56° C | 69% | 1021.3 hPa | - | - | - | - |
| 1787621932 | 10.56° C | 69% | 1021.3 hPa | - | - | - | - |
| 1787621032 | 11.11° C | 68% | 1021.4 hPa | - | - | - | - |
| 1787620131 | 11.11° C | 69% | 1021.6 hPa | - | - | - | - |
| 1787619231 | 11.11° C | 68% | 1021.7 hPa | - | - | - | - |
| 1787618331 | 11.11° C | 69% | 1021.8 hPa | - | - | - | - |
| 1787617430 | 10.56° C | 70% | 1022 hPa | - | - | - | - |
| 1787616530 | 10.56° C | 76% | 1022.4 hPa | - | - | - | - |
| 1787615630 | 11.11° C | 73% | 1022.4 hPa | - | - | - | - |
* Rain since midnight (hover to see other rain measurements)
** Current wind speed in m/s (hover to see current wind gust speed)